When you browse on this site, cookies collect data to enhance your experience and personalize the content and advertising you see.
Visit our Privacy Policy to learn more. By continuing to use the site, you agree to this use of cookies and data.
  • în România
  • Lista ţărilor
  • Pe 7 zile
  • Temperatura apei
  • Hartă satelitară
  • Meteo pe hartă
  • Widget-uri
  • user-avatar
    Intrare

    Meteo pe oră la Apanasenko

    Astăzi, 25 Aprilie, Joi

    Timp Temperatura Precipitaţii Vânt Presiune Umiditate
    00:00 +8°C° 0.4 mm 4 m/s 743 mmHg 75%
    01:00 +8°C° 0.5 mm 4 m/s 743 mmHg 75%
    02:00 +8°C° 0.5 mm 4 m/s 743 mmHg 74%
    03:00 +8°C° 0 mm 4 m/s 743 mmHg 72%
    04:00 +8°C° 0 mm 4 m/s 743 mmHg 71%
    05:00 +8°C° 0 mm 4 m/s 743 mmHg 71%
    06:00 +7°C° 0 mm 4 m/s 743 mmHg 70%
    07:00 +11°C° 0 mm 4 m/s 743 mmHg 65%
    08:00 +13°C° 0 mm 4 m/s 743 mmHg 60%
    09:00 +15°C° 0 mm 4 m/s 743 mmHg 54%
    10:00 +17°C° 0 mm 4 m/s 743 mmHg 50%
    11:00 +18°C° 0 mm 3 m/s 743 mmHg 46%
    12:00 +19°C° 0 mm 3 m/s 743 mmHg 42%
    13:00 +20°C° 0 mm 2 m/s 742 mmHg 42%
    14:00 +20°C° 0 mm 2 m/s 742 mmHg 41%
    15:00 +20°C° 0 mm 2 m/s 742 mmHg 41%
    16:00 +19°C° 0 mm 2 m/s 742 mmHg 46%
    17:00 +20°C° 0 mm 1 m/s 742 mmHg 50%
    18:00 +19°C° 0 mm 1 m/s 742 mmHg 55%
    19:00 +18°C° 0 mm 1 m/s 742 mmHg 56%
    20:00 +15°C° 0 mm 0 m/s 742 mmHg 57%
    21:00 +13°C° 0 mm 0 m/s 742 mmHg 59%
    22:00 +14°C° 0 mm 1 m/s 742 mmHg 61%
    23:00 +13°C° 0 mm 1 m/s 742 mmHg 63%

    Mâine, 26 Aprilie, Vineri

    Timp Temperatura Precipitaţii Vânt Presiune Umiditate
    00:00 +12°C° 0 mm 1 m/s 742 mmHg 65%
    01:00 +12°C° 0 mm 1 m/s 742 mmHg 66%
    02:00 +12°C° 0 mm 1 m/s 741 mmHg 67%
    03:00 +11°C° 0 mm 1 m/s 741 mmHg 68%
    04:00 +11°C° 0 mm 1 m/s 741 mmHg 70%
    05:00 +11°C° 0 mm 1 m/s 741 mmHg 71%
    06:00 +11°C° 0 mm 1 m/s 741 mmHg 72%
    07:00 +14°C° 0 mm 1 m/s 741 mmHg 66%
    08:00 +16°C° 0 mm 1 m/s 741 mmHg 59%
    09:00 +17°C° 0 mm 0 m/s 740 mmHg 53%
    10:00 +20°C° 0 mm 1 m/s 740 mmHg 49%
    11:00 +20°C° 0 mm 2 m/s 740 mmHg 45%
    12:00 +21°C° 0 mm 3 m/s 740 mmHg 42%
    13:00 +21°C° 0 mm 3 m/s 739 mmHg 41%
    14:00 +22°C° 0 mm 3 m/s 739 mmHg 41%
    15:00 +22°C° 0 mm 3 m/s 739 mmHg 40%
    16:00 +21°C° 0 mm 3 m/s 739 mmHg 45%
    17:00 +21°C° 0 mm 3 m/s 738 mmHg 50%
    18:00 +20°C° 0 mm 3 m/s 738 mmHg 55%
    19:00 +18°C° 0 mm 2 m/s 738 mmHg 58%
    20:00 +16°C° 0 mm 2 m/s 739 mmHg 61%
    21:00 +15°C° 0 mm 2 m/s 739 mmHg 64%
    22:00 +14°C° 0 mm 2 m/s 739 mmHg 65%
    23:00 +14°C° 0 mm 1 m/s 739 mmHg 66%

    Poimâine, 27 Aprilie, Sâmbătă

    Timp Temperatura Precipitaţii Vânt Presiune Umiditate
    00:00 +13°C° 0 mm 1 m/s 739 mmHg 67%
    01:00 +13°C° 0 mm 1 m/s 738 mmHg 69%
    02:00 +12°C° 0 mm 1 m/s 738 mmHg 70%
    03:00 +12°C° 0 mm 1 m/s 738 mmHg 72%
    04:00 +12°C° 0 mm 1 m/s 738 mmHg 73%
    05:00 +12°C° 0 mm 1 m/s 738 mmHg 73%
    06:00 +12°C° 0 mm 1 m/s 738 mmHg 74%
    07:00 +14°C° 0 mm 2 m/s 738 mmHg 65%
    08:00 +17°C° 0 mm 3 m/s 738 mmHg 56%
    09:00 +19°C° 0 mm 4 m/s 738 mmHg 48%
    10:00 +20°C° 0 mm 4 m/s 737 mmHg 45%
    11:00 +21°C° 0 mm 4 m/s 737 mmHg 42%
    12:00 +22°C° 0 mm 5 m/s 737 mmHg 40%
    13:00 +22°C° 0 mm 4 m/s 736 mmHg 39%
    14:00 +22°C° 0 mm 4 m/s 736 mmHg 39%
    15:00 +22°C° 0 mm 4 m/s 736 mmHg 39%
    16:00 +22°C° 0 mm 4 m/s 736 mmHg 44%
    17:00 +21°C° 0 mm 3 m/s 735 mmHg 49%
    18:00 +20°C° 0 mm 3 m/s 735 mmHg 54%
    19:00 +19°C° 0 mm 2 m/s 736 mmHg 57%
    20:00 +17°C° 0 mm 2 m/s 736 mmHg 60%
    21:00 +16°C° 0 mm 2 m/s 736 mmHg 63%
    22:00 +15°C° 0 mm 2 m/s 736 mmHg 64%
    23:00 +14°C° 0 mm 2 m/s 735 mmHg 64%

    28 Aprilie, Duminică

    Timp Temperatura Precipitaţii Vânt Presiune Umiditate
    00:00 +14°C° 0 mm 2 m/s 735 mmHg 65%
    01:00 +13°C° 0 mm 2 m/s 735 mmHg 67%
    02:00 +12°C° 0 mm 1 m/s 734 mmHg 68%
    03:00 +11°C° 0 mm 1 m/s 734 mmHg 70%
    04:00 +11°C° 0 mm 0 m/s 734 mmHg 71%
    05:00 +11°C° 0 mm 0 m/s 734 mmHg 72%
    06:00 +11°C° 0 mm 0 m/s 734 mmHg 73%
    07:00 +14°C° 0 mm 1 m/s 734 mmHg 67%
    08:00 +16°C° 0 mm 1 m/s 734 mmHg 62%
    09:00 +20°C° 0 mm 1 m/s 734 mmHg 56%
    10:00 +21°C° 0 mm 1 m/s 734 mmHg 52%
    11:00 +22°C° 0 mm 1 m/s 734 mmHg 48%
    12:00 +24°C° 0 mm 1 m/s 734 mmHg 44%
    13:00 +24°C° 0 mm 2 m/s 733 mmHg 42%
    14:00 +24°C° 0 mm 2 m/s 733 mmHg 41%
    15:00 +25°C° 0 mm 2 m/s 733 mmHg 39%
    16:00 +24°C° 0 mm 2 m/s 733 mmHg 44%
    17:00 +23°C° 0 mm 2 m/s 733 mmHg 49%
    18:00 +23°C° 0 mm 1 m/s 733 mmHg 54%
    19:00 +21°C° 0 mm 1 m/s 733 mmHg 55%
    20:00 +20°C° 0 mm 1 m/s 733 mmHg 57%
    21:00 +19°C° 0 mm 1 m/s 733 mmHg 58%
    22:00 +18°C° 0.1 mm 1 m/s 733 mmHg 61%
    23:00 +16°C° 0.1 mm 1 m/s 733 mmHg 65%

    29 Aprilie, Luni

    Timp Temperatura Precipitaţii Vânt Presiune Umiditate
    00:00 +15°C° 0.1 mm 1 m/s 733 mmHg 68%
    01:00 +14°C° 0 mm 1 m/s 733 mmHg 69%
    02:00 +14°C° 0 mm 1 m/s 733 mmHg 70%
    03:00 +13°C° 0 mm 2 m/s 733 mmHg 71%
    04:00 +13°C° 0 mm 2 m/s 733 mmHg 72%
    05:00 +14°C° 0 mm 2 m/s 733 mmHg 73%
    06:00 +14°C° 0 mm 2 m/s 733 mmHg 75%
    07:00 +16°C° 0 mm 1 m/s 733 mmHg 68%
    08:00 +19°C° 0 mm 1 m/s 733 mmHg 61%
    09:00 +21°C° 0 mm 1 m/s 733 mmHg 54%
    10:00 +23°C° 0 mm 1 m/s 733 mmHg 49%
    11:00 +24°C° 0 mm 1 m/s 733 mmHg 44%
    12:00 +25°C° 0 mm 1 m/s 733 mmHg 39%
    13:00 +25°C° 0 mm 1 m/s 733 mmHg 40%
    14:00 +25°C° 0 mm 2 m/s 733 mmHg 41%
    15:00 +25°C° 0 mm 2 m/s 732 mmHg 42%
    16:00 +24°C° 0 mm 2 m/s 732 mmHg 47%
    17:00 +23°C° 0 mm 2 m/s 732 mmHg 51%
    18:00 +22°C° 0 mm 1 m/s 733 mmHg 56%
    19:00 +20°C° 0.2 mm 2 m/s 733 mmHg 61%
    20:00 +18°C° 0.2 mm 2 m/s 733 mmHg 66%
    21:00 +17°C° 0.2 mm 2 m/s 733 mmHg 70%
    22:00 +16°C° 0.4 mm 2 m/s 733 mmHg 73%
    23:00 +15°C° 0.4 mm 2 m/s 733 mmHg 76%

    30 Aprilie, Marţi

    Timp Temperatura Precipitaţii Vânt Presiune Umiditate
    00:00 +15°C° 0.4 mm 1 m/s 733 mmHg 79%
    01:00 +14°C° 0 mm 1 m/s 733 mmHg 80%
    02:00 +14°C° 0 mm 1 m/s 733 mmHg 80%
    03:00 +14°C° 0 mm 1 m/s 733 mmHg 81%
    04:00 +14°C° 0 mm 1 m/s 734 mmHg 81%
    05:00 +14°C° 0 mm 1 m/s 734 mmHg 81%
    06:00 +14°C° 0 mm 1 m/s 734 mmHg 81%
    07:00 +16°C° 0 mm 1 m/s 734 mmHg 75%
    08:00 +17°C° 0 mm 2 m/s 734 mmHg 69%
    09:00 +19°C° 0 mm 2 m/s 734 mmHg 63%
    10:00 +20°C° 0 mm 2 m/s 734 mmHg 60%
    11:00 +21°C° 0 mm 3 m/s 734 mmHg 58%
    12:00 +22°C° 0 mm 3 m/s 734 mmHg 55%
    13:00 +22°C° 0 mm 4 m/s 734 mmHg 55%
    14:00 +22°C° 0 mm 4 m/s 734 mmHg 56%
    15:00 +23°C° 0 mm 5 m/s 733 mmHg 56%
    16:00 +22°C° 0 mm 5 m/s 734 mmHg 59%
    17:00 +21°C° 0 mm 5 m/s 734 mmHg 62%
    18:00 +20°C° 0 mm 4 m/s 734 mmHg 65%
    19:00 +19°C° 0 mm 5 m/s 734 mmHg 69%
    20:00 +16°C° 0 mm 5 m/s 734 mmHg 72%
    21:00 +14°C° 0 mm 6 m/s 734 mmHg 75%
    22:00 +13°C° 0 mm 5 m/s 734 mmHg 77%
    23:00 +12°C° 0 mm 5 m/s 734 mmHg 78%
    Arată mai mult